Torna al catalogo

COSMOS 2251 DEB

AttivoLEO
NORAD 33758·DEBRIS·🇷🇺 Russia

Lanciato Jun 16, 1993 da Plesetsk Cosmodrome

Loading…

Prossimi Passaggi (prossime 24 ore)

TLE

AggiornatoSource: Space-Track

Epoca: Sep 14, 2026, 10:49 UTC

1 33758U 93036F   26257.45125076  .00001914  00000-0  46785-3 0  9997
2 33758  74.0263  54.9107 0016286  57.2109 323.7802 14.53180025923089

Traccia COSMOS 2251 DEB in tempo reale con AllMySat

Download on the App Store